Weather Roundup
Issued by NWS Chicago, IL

Home | Current Version | Previous Version | Text Only | Print | Product List | Glossary On
Versions: 1 2 3 4 5 6 7 8 9 10 11 12 13 14 15 16 17 18 19 20 21 22 23 24 25 26 27 28 29 30 31 32 33 34 35 36 37 38 39 40 41 42 43 44 45 46 47 48 49 50
000
NZUS59 KLOT 230809
HRRLOT

CHICAGO AREA WEATHER ROUNDUP
NATIONAL WEATHER SERVICE CHICAGO/ROMEOVILLE IL
300 AM CDT WED AUG 23 2017

NOTE: "FAIR" INDICATES FEW OR NO CLOUDS BELOW 12,000 FEET WITH NO
SIGNIFICANT WEATHER AND/OR OBSTRUCTIONS TO VISIBILITY.

* THESE STATIONS ARE NOT UNDER NWS QUALITY CONTROL. THEY ALSO MAY NOT
  REPORT WEATHER SUCH AS PRECIPITATION OR FOG.

ILZ005-006-012>014-019>023-230900-
NORTHEAST ILLINOIS

CITY           SKY/WX    TMP DP  RH WIND       PRES   REMARKS
OHARE          CLEAR     63  50  62 NW10      30.01S
MIDWAY         CLEAR     63  51  65 NW7       30.01S
AURORA         CLEAR     53  51  93 NW6       30.04S
LANSING*       CLEAR     60  50  69 W3        30.02R
JOLIET*        CLEAR     60  54  78 CALM      30.03S
WAUKEGAN       CLEAR     59  52  77 W3        30.00S
DUPAGE AIRPORT CLEAR     59  52  77 W8        30.02S
WHEELING       CLEAR     62  53  72 NW5       30.03R
MORRIS*        CLEAR     52  51  95 NW6       30.02S
LEWIS AIRPORT* CLEAR     56  51  81 NW7       30.03S
NORTHERLY ISL    N/A     66  50  56 W9          N/A
$$

WIZ051-052-058>065-066-070>072-230900-
SOUTHEAST WISCONSIN

CITY           SKY/WX    TMP DP  RH WIND       PRES   REMARKS
MILWAUKEE      CLEAR     62  51  67 W6        29.99S
KENOSHA*       CLEAR     55  51  86 W6        30.01R
RACINE*        CLEAR     59  52  77 W7        30.01S
WAUKESHA       CLEAR     55  48  76 W8        30.01S
WEST BEND      CLEAR     57  50  77 W7        29.99R
$$

INZ001>003-010>013-019-020-230900-
NORTHWEST INDIANA

CITY           SKY/WX    TMP DP  RH WIND       PRES   REMARKS
GARY*          CLEAR     61  51  70 W5        30.02S
MICHIGAN CITY* NOT AVBL
RENSSELAER*    NOT AVBL
VALPARAISO     CLEAR     62  54  74 NW6       30.01S
$$

LMZ740>746-230900-
SOUTHERN LAKE MICHIGAN

STATION/POSITION TIME  SKY/WX   TEMP WIND        PRES    VSBY
                                AIR  DIR/SP/G
                 (UTC)          (F)  (DEG/KT/KT) (MB)    (MI)
HARRISON CRIB    0740            68  300/ 17/ 18   N/A
BURNHAM HARBOR   NOT AVBL
CALUMET HARBOR   0748            64  280/  2/  6 1015.6R
BURNS HARBOR     0740            71  320/ 17/ 20 1015.9S
MICHIGAN CITY    0740            70  300/ 19/ 21   N/A
$$

ABBREVIATIONS USED IN REMARKS
   TC - TEMPERATURE IN CELSIUS
  WCI - WIND CHILL INDEX
   HX - HEAT INDEX
  VSB - VISIBILITY
$$



USA.gov is the U.S. government's official web portal to all federal, state and local government web resources and services.